STARLINK-1666, 46357

Orbit data source: Space-Track

STARLINK-1666, 46357 is a payload satellite owned by SpaceX/Seattle (US) in LEO that was launched on Thu, 03 Sep 2020 UTC via an FALCON 9 launch vehicle from the Air Force Eastern Test Range (AFETR). Payload-class satellites include a variety of spacecraft equipped with specific instruments for various scientific and technological missions. These include communications satellites like Starlink; space stations such as the ISS; scientific satellites like the Hubble; Earth observation satellites from companies like Planet Labs, Umbra, and HawkEye 360; GPS; miniature CubeSats for education and research; and military/defense satellites.

Loading next visibility...
Identifier
46357, 2020-062AJ
Orbit
LEO
Country
Flag of USUS
Related business
Manufacturer
SpaceX/Seattle
Mission
Operational Commercial Communications
Bus & Motor
STARLINK, Unknown motor
Mass
260 kg wet, ~248 kg dry
Launch date (UTC)
2020-09-03 (5 years ago)
Launch vehicle
FALCON 9
Launch site
Air Force Eastern Test Range (AFETR)
Object type
Payload
Rocket body
Debris
Shape & HBR
Box + 1 Pan, 4.4 m
Radar Cross Section
13.562 m², Large (>1 m²)

Expand to show TLE details & history
Last TLE update: 10 hours ago

TLE from 10 hours ago
0 STARLINK-1666
1 46357U 20062AJ  25259.15636382  .00000909  00000-0  79921-4 0  9992
2 46357  53.0537  60.1277 0001348  89.3622 270.7522 15.06404261278280
Epoch: 2025-09-16T03:45Z
TLE epoch observation values (Epoch: 2025-09-16T03:45:09.834Z)
Latitude
0.00004°
Longitude
8.48605°
Altitude
548.065 km
Speed
7.589 km/s
True Right ascension
04h 00m 30s
True Declination
0° 00' 00"
Sunlit
Object was in full shadow at epoch
Visualization orbit readout
Latitude
Unknown
Longitude
Unknown
Altitude
Unknown
Speed
Unknown
Apparent Right ascension
Unknown
Apparent Declination
Unknown
Sunlit
N/A
Visualization observer readout
Local Sidereal Time
06:21:02
Azimuth
Unknown
Elevation
Unknown
Doppler factor
Unknown
Orbital elements
Apogee altitude
548.403 km
Perigee altitude
546.536 km
Semi-major axis
6,925.606 km
Eccentricity
0.00013
Inclination
53.0537°
RAAN
60.1277°
Arg. of periapsis
89.3622°
True anomaly
270.73675°
Mean anomaly
270.7522°
Eccentric anomaly
270.74448°
Mean motion
3.76579 °/min
Orbital period
95.6 mins
BSTAR
0.000079921
Loading maneuver chart data...
Computing Atmospheric mass density...
Loading historical data...
Loading historical data...
Loading historical data...
Loading historical data...
Loading historical data...
Loading historical data...
Loading historical data...

Documentation

Showing up to 5 results
|